Terminal Aerodrome Forecast
Issued by NWS Tiyan, Guam

Home | Current Version | Previous Version | Text Only | Print | Product List | Glossary On
Versions: 1 2 3 4 5 6 7 8 9 10 11 12 13 14 15 16 17 18 19 20 21 22 23 24
000
FTPQ31 PGUM 190500
TAFPQ
TAF
PGUM 190527Z 1906/2012 06019G30KT P6SM VCSH SCT018 BKN035
     FM190800 07013G20KT P6SM VCSH SCT020 SCT040 SCT120
     FM200100 07015G25KT P6SM VCSH SCT022 SCT050=

USA.gov is the U.S. government's official web portal to all federal, state and local government web resources and services.